User: anonymous   Login
Location: Unspecified
(44.7680°N, 0.0000°E)
Time: 06:44:08
(UTC+00:00)
Language:

SL-6 DEB - Orbit

View from above orbital plane
View from above orbital plane
View from above satellite
View from above satellite

Ground track
Ground track

The orbit is defined by the following mean orbital elements,

1 13904U          26081.70384284 +.00000000 +00000-0 +31061-4 0 00008
2 13904  62.9509 252.7685 4785129 303.4123  19.5366  5.48372858    07
Epoch (UTC): 22 March 2026 16:53:32
Eccentricity: 0.4785129
inclination: 62.9509°
perigee height: 706 km
apogee height: 13706 km
right ascension of ascending node: 252.7685°
argument of perigee: 303.4123°
revolutions per day: 5.48372858
mean anomaly at epoch: 19.5366°

The dashed part of the orbit path shows where the satellite is in the earth's shadow,  

DLR